Regional Weather Roundup
Issued by NWS

Home | Current Version | Previous Version | Text Only | Print | Product List | Glossary Off
Versions: 1 2 3 4 5 6 7 8 9 10 11 12 13 14 15 16 17 18 19 20 21 22 23 24 25 26 27 28 29 30 31 32 33 34 35 36 37 38 39 40 41 42 43 44 45 46 47 48 49 50

000
ASUS43 KLOT 290410
RWRIL

ILLINOIS REGIONAL WEATHER ROUNDUP
NATIONAL WEATHER SERVICE CHICAGO/ROMEOVILLE IL
1100 PM CDT THU AUG 28 2014

NOTE: "FAIR" INDICATES FEW OR NO CLOUDS BELOW 12,000 FEET WITH NO
SIGNIFICANT WEATHER AND/OR OBSTRUCTIONS TO VISIBILITY.

* THESE STATIONS ARE NOT UNDER NWS QUALITY CONTROL. THEY ALSO MAY NOT
  REPORT WEATHER SUCH AS PRECIPITATION OR FOG.

ILZ001-002-007-009-015-016-024-290500-
NORTHWEST ILLINOIS

CITY           SKY/WX    TMP DP  RH WIND       PRES   REMARKS
MOLINE         MOCLDY    70  67  90 SE7       29.98R
STERLING*      CLOUDY    68  64  88 SE3       30.01R
SAVANNA*       MOCLDY    68  65  90 E3        30.00S
$$

ILZ003-004-008-010-011-017-018-290500-
NORTH CENTRAL ILLINOIS

CITY           SKY/WX    TMP DP  RH WIND       PRES   REMARKS
ROCKFORD       CLOUDY    65  61  87 E7        30.04R
FREEPORT*      MOCLDY    63  61  94 E8        30.04S
ROCHELLE*      CLOUDY    67  64  91 SE5       30.03S
DE KALB*       CLOUDY    65  63  94 SE7       30.04S FOG
PERU*          CLOUDY    69  67  93 SE9       30.02F
$$

ILZ005-006-012>014-019>023-290500-
NORTHEAST ILLINOIS

CITY           SKY/WX    TMP DP  RH WIND       PRES   REMARKS
CHICAGO-OHARE  CLOUDY    70  62  76 E5        30.04S
CHICAGO-MIDWAY DRIZZLE   72  67  84 SE3       30.05R
AURORA         CLOUDY    69  64  84 E8        30.04R
LANSING*       LGT RAIN  70  65  85 SE5       30.05F
JOLIET*        DRIZZLE   68  65  90 CALM      30.04S
WAUKEGAN       CLOUDY    68  63  84 E3        30.04S
DUPAGE AIRPORT CLOUDY    68  65  90 E5        30.04R FOG
KANKAKEE*      CLOUDY    71  67  88 SE3       30.06S
WHEELING       CLOUDY    71  63  75 CALM      30.06S
MORRIS*        LGT RAIN  69  69 100 E6        30.03S
ROMEOVILLE*    CLOUDY    68  67  96 E6        30.04S FOG
NORTHERLY ISL    N/A     71  66  84 SE7         N/A
$$

LMZ740>746-290500-
SOUTHERN LAKE MICHIGAN

STATION/POSITION SKY/WX   TEMP    WIND        PRES    VSBY  WAVE
                          AIR SEA DIR/SP/G                  HT/PER
                          (F)     (DEG/KT/KT) (MB)    (MI)  (FT/S)
SOUTHERN BUOY              69 69  110/ 16/ 17 1017.6F         2/ 3
WAUKEGAN HARBOR            71     120/ 11/ 13   N/A
HARRISON CRIB              71     140/  9/ 12   N/A
BURNHAM HARBOR             71     120/  4/  8   N/A
CALUMET HARBOR             72     120/  5/  8 1016.0F
MICHIGAN CITY              71     110/  6/  8   N/A
MICHIGAN CITY 6N           72 72  150/  8/ 10   N/A           1/ 3
ST. JOSEPH                 71 71  120/ 12/ 16   N/A           1/ 2
$$

ILZ025>027-034>036-040-047-049-050-058-095>099-290500-
WEST-CENTRAL ILLINOIS

CITY           SKY/WX    TMP DP  RH WIND       PRES   REMARKS
QUINCY         PTCLDY    72  68  87 E13       29.97S
GALESBURG*     MOCLDY    69  67  96 SE5       29.99S
MACOMB*        CLOUDY    71  70  97 SE10      30.02R
JACKSONVILLE*  CLOUDY    73  71  92 SE8       30.01S
PITTSFIELD*    MOCLDY    73  68  82 E8        30.00F
$$

ILZ028>032-037-038-041>044-048-051>054-059>061-290500-
CENTRAL ILLINOIS

CITY           SKY/WX    TMP DP  RH WIND       PRES   REMARKS
PONTIAC        LGT RAIN  72  70  94 SE7       30.04S
DECATUR        HVY RAIN  70  68  93 N7        30.04F FOG
PEORIA         CLOUDY    73  68  84 S8        30.02R
LACON*         CLOUDY    70  67  91 SE7       30.00S
LINCOLN*       CLOUDY    71  69  93 SE5       30.01S
SPRINGFIELD    CLOUDY    71  70  96 E9        30.01F
TAYLORVILLE    LGT RAIN  70  68  94 E3        30.03F
$$

ILZ033-039-045-046-055>057-062-063-290500-
EAST-CENTRAL ILLINOIS

CITY           SKY/WX    TMP DP  RH WIND       PRES   REMARKS
CHAMPAIGN      CLOUDY    73  70  90 E3        30.05R
DANVILLE*      CLOUDY    71  67  88 E3        30.03S
RANTOUL*       CLOUDY    75  67  77 CALM      30.06S
MATTOON        CLOUDY    75  70  84 S3        30.03S
PARIS*         MOCLDY    71  68  91 CALM      30.05S
$$

ILZ079-100>102-290500-
SOUTHWEST ILLINOIS

CITY           SKY/WX    TMP DP  RH WIND       PRES   REMARKS
BELLEVILLE     CLOUDY    75  75 100 N2        29.98S FOG
SPARTA*        CLOUDY    73  73  97 SE6       30.00S
$$

ILZ064>066-069>071-074>076-080>082-084>086-088>090-092>094-290500-
SOUTH-CENTRAL ILLINOIS

CITY           SKY/WX    TMP DP  RH WIND       PRES   REMARKS
CARBONDALE     CLOUDY    73  71  93 E5        30.00R
CAIRO*         PTCLDY    74  71  88 CALM      29.99S FOG
EFFINGHAM*     RAIN      75  70  84 CALM      30.03F
MARION         CLOUDY    73  72  94 CALM      30.02R
MT. VERNON     CLOUDY    73  66  78 N5        30.02F
CENTRALIA*     CLOUDY    73  70  91 E3        30.02S FOG
SALEM*         CLOUDY    76  74  95 CALM      30.03S FOG
METROPOLIS*      N/A     72  72 100 CALM      30.00R FOG
$$

ILZ067-068-072-073-078-083-087-091-290500-
SOUTHEAST ILLINOIS

CITY           SKY/WX    TMP DP  RH WIND       PRES   REMARKS
LAWRENCEVILLE  CLOUDY    76  71  85 CALM      30.03S
FLORA*         CLOUDY    74  73  95 CALM      30.03S FOG
FAIRFIELD*     CLOUDY    75  73  94 CALM      30.02S FOG
HARRISBURG*    MOCLDY    73  73 100 CALM      30.02S FOG
ROBINSON*      CLOUDY    76  74  94 CALM      30.04S
CARMI*         MOCLDY    74  73  98 CALM      30.01S FOG
$$

ABBREVIATIONS USED IN REMARKS
   TC - TEMPERATURE IN CELSIUS
  WCI - WIND CHILL INDEX
   HX - HEAT INDEX
  VSB - VISIBILITY
$$



USA.gov is the U.S. government's official web portal to all federal, state and local government web resources and services.